Погода в Тольском Майдане

Россия / Нижегородская область     54°56′50″N   44°39′08″E
темп.,
°C
ветер,
м/с
пор.,
м/с
влажн.,
%
обл.,
%
осадки,
мм/ч
давл.,
гПа
погр.,
м
15 апреля, чт
чт1500:00+11ююв33745 0.0 102037
03:00+9ююв33805 0.0 102020
06:00+9ююв34785 0.0 102053
09:00+14ю355639 0.0 1019317
12:00+18ююв334018 0.0 1018883
15:00+19юв113110 0.0 10181731
18:00+17всв22452 0.0 101819
21:00+12в4553100 0.0 101962
16 апреля, пт
пт1600:00+11всв4658100 0.0 101987
03:00+8св6139893 0.0 1020317
06:00+8всв71191100 0.0 1021419
09:00+9всв7986100 0.0 1022499
12:00+13всв6873100 0.0 1023749
15:00+12всв597499 0.0 1023723
18:00+11всв6117491 0.0 1023531
21:00+8всв5128511 0.0 1024347
17 апреля, сб
сб1700:00+6всв5118133 0.0 1025287
03:00+5всв5118215 0.0 1025258
06:00+4всв511805 0.0 1026291
09:00+9всв710665 0.0 1026502
12:00+12всв795616 0.0 1025958
15:00+14в78505 0.0 10241252
18:00+12всв610565 0.0 1024457
21:00+8всв613545 0.0 1024355
18 апреля, вс
вс1800:00+6всв513635 0.0 1024317
03:00+4всв513685 0.0 1024320
06:00+4всв512745 0.0 1024331
09:00+8всв695663 0.0 1024727
12:00+11всв6744100 0.0 10231436
15:00+12всв6842100 0.0 10231979
18:00+10всв6105097 0.0 1023537
21:00+7св61263100 0.0 1024438
19 апреля, пн
пн1900:00+5всв6127998 0.0 1026516
03:00+4всв61277100 0.0 1026570
06:00+2всв71258100 0.0 1028574
09:00+4всв8105427 0.0 1029825
12:00+7всв810445 0.0 10291562
15:00+8всв89365 0.0 10291784
18:00+6в610410 0.0 10301266
21:00+3всв511490 0.0 1032398